M4105 UKBB-UKOO

Flight info

Callsign M4105
Flight time N/A
Altitude 21000
Route BASOR M856 GOBLI L919 ODSAN
Aircraft A225/J-SCDFGHIRUWXYZ/LB1

Departure

Time N/A
Airport Boryspil International Airport (UKBB)

Arrival

Time 2026-04-24 19:14
Airport Odesa International Airport (UKOO)
Time Latitude Longitude Altitude Speed Heading
2026-04-24 18:54 48.25177 30.61068 23891 ft 532 kts 200°
2026-04-24 18:55 48.18065 30.57909 24018 ft 532 kts 201°
2026-04-24 18:55 48.14543 30.56338 24323 ft 527 kts 201°
2026-04-24 18:55 48.11046 30.54783 24588 ft 523 kts 200°
2026-04-24 18:56 48.07600 30.53243 25152 ft 516 kts 200°
2026-04-24 18:56 48.04174 30.51696 25441 ft 517 kts 201°
2026-04-24 18:56 48.00702 30.50056 25887 ft 513 kts 202°
2026-04-24 18:56 47.97316 30.48488 26594 ft 506 kts 201°
2026-04-24 18:57 47.93976 30.46953 26846 ft 509 kts 202°
2026-04-24 18:57 47.90610 30.45410 27240 ft 508 kts 202°
2026-04-24 18:57 47.87187 30.43880 27678 ft 507 kts 201°
2026-04-24 18:57 47.83795 30.42418 27946 ft 505 kts 200°
2026-04-24 18:58 47.80471 30.41108 28813 ft 494 kts 199°
2026-04-24 18:58 47.77115 30.39906 29048 ft 499 kts 198°
2026-04-24 18:58 47.73756 30.38783 29356 ft 500 kts 196°
2026-04-24 18:58 47.70281 30.37916 29611 ft 503 kts 192°
2026-04-24 18:59 47.66797 30.37236 29613 ft 511 kts 190°
2026-04-24 18:59 47.63287 30.36662 29784 ft 511 kts 188°
2026-04-24 18:59 47.59759 30.36190 30088 ft 510 kts 188°
2026-04-24 19:00 47.53875 30.35391 30219 ft 511 kts 188°
2026-04-24 19:00 47.49141 30.34755 30497 ft 511 kts 187°
2026-04-24 19:00 47.45623 30.34345 30642 ft 512 kts 186°
2026-04-24 19:00 47.42068 30.34018 30478 ft 519 kts 185°
2026-04-24 19:01 47.38396 30.33886 30167 ft 523 kts 177°
2026-04-24 19:01 47.34862 30.34780 30811 ft 509 kts 165°
2026-04-24 19:01 47.31459 30.36064 30902 ft 512 kts 165°
2026-04-24 19:02 47.25650 30.38219 30580 ft 527 kts 165°
2026-04-24 19:02 47.20899 30.39969 29900 ft 535 kts 164°
2026-04-24 19:02 47.17260 30.41297 29327 ft 542 kts 165°
2026-04-24 19:02 47.13590 30.42619 28761 ft 547 kts 165°
2026-04-24 19:03 47.09868 30.43951 27978 ft 554 kts 165°
2026-04-24 19:03 47.06138 30.45272 27062 ft 560 kts 165°
2026-04-24 19:03 47.02333 30.46613 25967 ft 567 kts 165°
2026-04-24 19:03 46.98494 30.47970 24281 ft 576 kts 165°
2026-04-24 19:04 46.94672 30.49296 23576 ft 568 kts 165°
2026-04-24 19:04 46.90795 30.50662 22377 ft 566 kts 165°
2026-04-24 19:04 46.87042 30.52003 21447 ft 552 kts 165°
2026-04-24 19:04 46.83350 30.53331 20772 ft 543 kts 165°
2026-04-24 19:05 46.79652 30.54646 18479 ft 561 kts 166°
2026-04-24 19:05 46.75911 30.55917 16335 ft 551 kts 167°
2026-04-24 19:05 46.72271 30.57113 14796 ft 538 kts 168°
2026-04-24 19:05 46.68658 30.58202 12819 ft 531 kts 172°
2026-04-24 19:06 46.65088 30.58708 12150 ft 508 kts 179°
2026-04-24 19:06 46.61605 30.58440 11744 ft 490 kts 189°
2026-04-24 19:06 46.58285 30.57734 11349 ft 481 kts 191°
2026-04-24 19:06 46.54946 30.57004 10395 ft 484 kts 191°
2026-04-24 19:07 46.51683 30.56336 10077 ft 475 kts 191°
2026-04-24 19:07 46.48379 30.55687 9305 ft 476 kts 191°
2026-04-24 19:07 46.46240 30.55179 8905 ft 473 kts 193°
2026-04-24 19:07 46.42149 30.53344 8675 ft 449 kts 206°
2026-04-24 19:08 46.39309 30.51594 8422 ft 439 kts 201°
2026-04-24 19:08 46.36422 30.51426 9666 ft 404 kts 176°
2026-04-24 19:08 46.33678 30.52321 9228 ft 415 kts 166°
2026-04-24 19:08 46.30899 30.53614 8971 ft 417 kts 163°
2026-04-24 19:09 46.28169 30.54936 9059 ft 408 kts 163°
2026-04-24 19:09 46.25541 30.56358 9149 ft 401 kts 159°
2026-04-24 19:09 46.23167 30.58400 9193 ft 399 kts 140°
2026-04-24 19:09 46.21570 30.61505 9581 ft 380 kts 108°
2026-04-24 19:10 46.21292 30.65128 9873 ft 360 kts 83°
2026-04-24 19:10 46.21884 30.68622 8907 ft 366 kts 64°
2026-04-24 19:10 46.23225 30.71800 7425 ft 378 kts 50°
2026-04-24 19:10 46.25082 30.74301 5647 ft 376 kts 25°
2026-04-24 19:11 46.27519 30.74408 4739 ft 345 kts 339°
2026-04-24 19:11 46.29502 30.72909 4168 ft 311 kts 332°
2026-04-24 19:11 46.31517 30.72027 3045 ft 293 kts 346°
2026-04-24 19:11 46.33374 30.71309 2348 ft 261 kts 346°
2026-04-24 19:12 46.35045 30.70643 1444 ft 247 kts 345°
2026-04-24 19:12 46.36604 30.69971 1081 ft 219 kts 344°
2026-04-24 19:12 46.37956 30.69340 815 ft 190 kts 343°
2026-04-24 19:12 46.39160 30.68835 562 ft 170 kts 344°
2026-04-24 19:13 46.39876 30.68525 464 ft 157 kts 344°
2026-04-24 19:13 46.41190 30.67950 230 ft 138 kts 343°
2026-04-24 19:13 46.42039 30.67587 187 ft 113 kts 342°
2026-04-24 19:13 46.42639 30.67324 193 ft 67 kts 343°
2026-04-24 19:14 46.42985 30.67191 194 ft 43 kts 356°
2026-04-24 19:14 46.43242 30.67215 195 ft 16 kts 12°
2026-04-24 19:14 46.43301 30.67235 196 ft 0 kts 13°
2026-04-24 19:15 46.43309 30.67239 196 ft 0 kts 30°
2026-04-24 19:15 46.43311 30.67243 195 ft 0 kts 47°
2026-04-24 19:15 46.43313 30.67250 195 ft 3 kts 70°
2026-04-24 19:15 46.43307 30.67302 194 ft 5 kts 128°
2026-04-24 19:16 46.43259 30.67332 194 ft 3 kts 164°
2026-04-24 19:16 46.43227 30.67346 194 ft 8 kts 163°
2026-04-24 19:16 46.43133 30.67387 194 ft 19 kts 163°
2026-04-24 19:17 46.42972 30.67457 194 ft 29 kts 163°
2026-04-24 19:17 46.42750 30.67554 192 ft 35 kts 164°
2026-04-24 19:17 46.42517 30.67653 190 ft 33 kts 165°
2026-04-24 19:17 46.42302 30.67743 187 ft 31 kts 161°
2026-04-24 19:18 46.42109 30.67838 187 ft 27 kts 152°
2026-04-24 19:18 46.41981 30.67983 187 ft 17 kts 137°
2026-04-24 19:18 46.41902 30.68101 187 ft 14 kts 127°
2026-04-24 19:18 46.41872 30.68213 187 ft 10 kts 85°
2026-04-24 19:19 46.41886 30.68295 187 ft 6 kts 71°
2026-04-24 19:19 46.41898 30.68324 188 ft 0 kts 41°
2026-04-24 19:19 46.41902 30.68328 188 ft 3 kts 32°
2026-04-24 19:19 46.41996 30.68320 190 ft 38 kts 345°
2026-04-24 19:20 46.42403 30.68146 190 ft 68 kts 344°
2026-04-24 19:20 46.42847 30.67959 191 ft 64 kts 343°
2026-04-24 19:20 46.43255 30.67782 194 ft 58 kts 345°
2026-04-24 19:20 46.43636 30.67620 194 ft 54 kts 343°
2026-04-24 19:21 46.43849 30.67527 197 ft 21 kts 343°
2026-04-24 19:21 46.43947 30.67606 197 ft 16 kts 68°
2026-04-24 19:21 46.43991 30.67721 197 ft 6 kts 77°
2026-04-24 19:21 46.43991 30.67725 197 ft 0 kts 78°